Regional Weather Roundup
Issued by NWS

Home | Current Version | Previous Version | Text Only | Print | Product List | Glossary On
Versions: 1 2 3 4 5 6 7 8 9 10 11 12 13 14 15 16 17 18 19 20 21 22 23 24 25 26 27 28 29 30 31 32 33 34 35 36 37 38 39 40 41 42 43 44 45 46 47 48 49 50
000
ASUS43 KMKX 291900
RWRWI

WISCONSIN REGIONAL WEATHER ROUNDUP
NATIONAL WEATHER SERVICE MILWAUKEE/SULLIVAN WI
200 PM CDT TUE JUL 29 2014

NOTE: "FAIR" INDICATES FEW OR NO CLOUDS BELOW 12,000 FEET WITH NO
SIGNIFICANT WEATHER AND/OR OBSTRUCTIONS TO VISIBILITY.

WIZ001-002-006>008-014>016-023>028-292000-
NORTHWEST WISCONSIN

CITY           SKY/WX    TMP DP  RH WIND       PRES   REMARKS
SUPERIOR ARPT  MOSUNNY   74  58  57 SW7       30.03F
ASHLAND        CLOUDY    75  59  57 VRB7      30.01F
HAYWARD        LGT RAIN  70  59  68 CALM      30.06S
SIREN          PTSUNNY   74  54  50 NW9       30.07F
RICE LAKE      MOSUNNY   74  56  52 NW9       30.08F
LADYSMITH      MOSUNNY   75  57  53 W13       30.07S
EAU CLAIRE     NOT AVBL
MENOMONIE      PTCLDY    80  51  36 W14G22    30.06F HX  80
NEW RICHMOND   MOSUNNY   77  55  45 W8G17     30.09S
OSCEOLA        MOSUNNY   77  56  47 NW8       30.11S
$$

WIZ003>005-009-010-017-018-292000-
NORTH CENTRAL WISCONSIN

CITY           SKY/WX    TMP DP  RH WIND       PRES   REMARKS
WOODRUFF       MOSUNNY   77  60  55 W6        30.03S
RHINELANDER    PTSUNNY   71  55  56 W8        30.03F
EAGLE RIVER    PTSUNNY   70  52  52 NW10      30.02S
LAND O LAKES   CLOUDY    68  52  56 N9        30.03F
PHILLIPS       MOSUNNY   72  56  58 NW5       30.04S
TOMAHAWK       MOSUNNY   71  56  57 W13       30.04F
MEDFORD        PTSUNNY   72  57  60 W12       30.05F
MERRILL        MOSUNNY   73  57  56 NW15      30.03F
$$

WIZ029-030-035-036-043>047-292000-
CENTRAL WISCONSIN

CITY           SKY/WX    TMP DP  RH WIND       PRES   REMARKS
WAUSAU         MOSUNNY   75  54  47 N12       30.01F
MOSINEE        PTSUNNY   73  54  49 W12G20    30.04F
MARSHFIELD     SUNNY     77  53  43 NW14      30.04F
STEVENS POINT  PTSUNNY   73  52  48 NW12G22   30.03F
WAUPACA        PTSUNNY   78  51  39 W7G16     30.01F
WAUTOMA        NOT AVBL
WISC RAPIDS    MOSUNNY   78  53  41 W13       30.04F
CAMP DOUGLAS   NOT AVBL
$$

WIZ011>013-019>022-031-037>040-048>050-292000-
NORTHEAST WISCONSIN

CITY           SKY/WX    TMP DP  RH WIND       PRES   REMARKS
ANTIGO         PTSUNNY   72  55  56 NW14      30.02F
STURGEON BAY   PTSUNNY   70  55  60 W6        29.98F
GREEN BAY      MOSUNNY   77  55  46 NW15      29.98F
MANITOWOC      NOT AVBL
APPLETON       PTSUNNY   73  54  49 W8        30.01F
CLINTONVILLE   PTSUNNY   75  52  43 NW9       30.00S
OSHKOSH        SUNNY     76  54  46 NW13      30.00F
$$

WIZ032>034-041-042-053>061-292000-
SOUTHWEST WISCONSIN

CITY           SKY/WX    TMP DP  RH WIND       PRES   REMARKS
LA CROSSE      MOSUNNY   81  55  40 NW14      30.06S HX  81
SPARTA         MOSUNNY   77  53  43 NW9G16    30.06F
VIROQUA        MOCLDY    74  56  53 NW9       30.08F
BOSCOBEL       PTSUNNY   81  57  43 NW10G20   30.06F HX  81
PRAIRIE DU CHI MOSUNNY   79  51  38 W7        30.07F
PLATTEVILLE    FAIR      78  55  45 NW15      30.08S
$$

WIZ056-057-062-063-064-067-068-292000-
SOUTH CENTRAL WISCONSIN

CITY           SKY/WX    TMP DP  RH WIND       PRES   REMARKS
BARABOO/DELLS  MOSUNNY   77  50  38 W12       30.04F
LONE ROCK      NOT AVBL
WATERTOWN      SUNNY     75  54  48 N10G17    30.02F
MADISON        MOSUNNY   79  54  41 NW10      30.03F
MIDDLETON      FAIR      77  52  42 NW13      30.05S
MONROE         MOSUNNY   77  52  41 NW9G18    30.05S
JANESVILLE     MOSUNNY   81  52  36 NW10      30.04S HX  80
$$

WIZ051-052-058>065-066-070>072-292000-
SOUTHEAST WISCONSIN

CITY           SKY/WX    TMP DP  RH WIND       PRES   REMARKS
MILWAUKEE      MOSUNNY   77  52  41 N15       30.00F
WAUKESHA       MOSUNNY   73  54  49 NW8G20    30.02F
MILWAUKEE/TIMM MOSUNNY   75  52  43 NW9G17    30.01F
RACINE         PTSUNNY   72  57  59 SE7       30.02F
BURLINGTON     SUNNY     73  53  48 NW10G21   30.02F
KENOSHA        MOSUNNY   77  54  44 NW8G18    30.02S
FOND DU LAC    MOSUNNY   77  53  43 NW13G21   30.00F
SHEBOYGAN      SUNNY     75  54  47 NW14      29.99F
WEST BEND      SUNNY     72  50  46 NW12G20   30.01F
JUNEAU         MOSUNNY   74  49  41 W13       30.03F
$$

LSZ147-162-292000-
LAKE SUPERIOR

STATION/POSITION TIME  TEMP    WIND        PRES    WAVE
                       AIR SEA DIR/SP/G            HT/PER
                 (UTC) (F)     (DEG/KT/KT) (MB)    (FT/S)
W MID LAKE BUOY  1750   51 43  260/  8/ 12 1016.7F   1
PORT WING        1800   67     280/ 14/ 16 1016.6F
SAXON HARBOR     1800           20/  4/  6 1017.3R
$$

LMZ867-665-643>646-292000-
LAKE MICHIGAN

STATION/POSITION TIME  TEMP    WIND        PRES    WAVE
                       AIR SEA DIR/SP/G            HT/PER
                 (UTC) (F)     (DEG/KT/KT) (MB)    (FT/S)
N MID LAKE BUOY  1750   58 55  260/  6/  6 1014.6F   1
NORTHPORT PIER   1800   64     350/  3/  3 1014.9F
SISTER BAY       1810   76     270/  5/  5   N/A
KEWAUNEE LAKESHO 1800   72     310/  4/  9 1015.9F
SHEBOYGAN LAKESH 1800   64     140/  7/  8 1016.0F
PORT WASHINGTON  1800   76     300/  8/ 12 1016.6F
ATWATER BUOY     1800   69     320/  8     1017.3F
MILWAUKEE LAKESH 1800   72     340/ 14/ 19   N/A
S MID LAKE BUOY  1750   61 61  300/  6/  6 1017.0F   1
KENOSHA   LAKESH 1800   67     100/ 10/ 12 1015.9F
$$

TC  - TEMPERATURE IN CELSIUS
VSB - VISIBILITY IN STATUTE MILES
WCI - WIND CHILL INDEX
HX  - HEAT INDEX




USA.gov is the U.S. government's official web portal to all federal, state and local government web resources and services.